Hourly Data Report for September 23, 2003

TORONTO CITY
ONTARIO

43°40'00.000" N
79°24'00.000" W
112.50 m
6158355
71508
XTO

Download Data

Hourly Data (September 2003)
Hourly Data Report for September 23, 2003
TIME
LST
Temp Definition
°C
Dew Point Definition
°C
Rel Hum Definition
%
Precip. Amount Definition
mm

Wind Dir Definition
10's deg

Wind Spd Definition
km/h
Visibility Definition
km
Stn Press Definition
kPa
Hmdx Definition


Wind Chill Definition


Weather Definition


00:00 16.4 15.1 92   LegendMM LegendMM LegendMM 99.11     LegendNANA
01:00 16.7 15.2 91   LegendMM LegendMM LegendMM 99.12     LegendNANA
02:00 16.5 15.0 91   LegendMM LegendMM LegendMM 99.10     LegendNANA
03:00 15.8 14.4 91   LegendMM LegendMM LegendMM 99.14     LegendNANA
04:00 15.6 13.9 90   LegendMM LegendMM LegendMM 99.16     LegendNANA
05:00 14.8 13.0 89   LegendMM LegendMM LegendMM 99.16     LegendNANA
06:00 14.3 12.9 91   LegendMM LegendMM LegendMM 99.18     LegendNANA
07:00 14.4 12.9 91   LegendMM LegendMM LegendMM 99.22     LegendNANA
08:00 14.8 12.8 88   LegendMM LegendMM LegendMM 99.23     LegendNANA
09:00 15.4 12.7 84   LegendMM LegendMM LegendMM 99.25     LegendNANA
10:00 17.6 12.5 72   LegendMM LegendMM LegendMM 99.24     LegendNANA
11:00 17.1 10.8 66   LegendMM LegendMM LegendMM 99.26     LegendNANA
12:00 18.5 9.8 57   LegendMM LegendMM LegendMM 99.28     LegendNANA
13:00 18.3 9.8 58   LegendMM LegendMM LegendMM 99.33     LegendNANA
14:00 18.8 10.0 57   LegendMM LegendMM LegendMM 99.37     LegendNANA
15:00 18.5 7.9 50   LegendMM LegendMM LegendMM 99.43     LegendNANA
16:00 18.6 8.5 52   LegendMM LegendMM LegendMM 99.48     LegendNANA
17:00 18.1 8.1 52   LegendMM LegendMM LegendMM 99.51     LegendNANA
18:00 17.4 9.1 58   LegendMM LegendMM LegendMM 99.59     LegendNANA
19:00 17.2 9.6 61   LegendMM LegendMM LegendMM 99.66     LegendNANA
20:00 15.9 10.0 68   LegendMM LegendMM LegendMM 99.74     LegendNANA
21:00 15.4 9.6 68   LegendMM LegendMM LegendMM 99.81     LegendNANA
22:00 15.0 9.8 71   LegendMM LegendMM LegendMM 99.85     LegendNANA
23:00 15.2 10.2 72   LegendMM LegendMM LegendMM 99.90     LegendNANA

Notes on Data Quality.

Legend

  • E = Estimated
  • M = Missing
  • NA = Not Available*
  • [empty] = Indicates an unobserved value
Date modified: